This demonstration page uses our WeatherBlox Daily Observations layout. Learn more.

Left ArrowRight Arrow

39.92423, -83.80882

Hourly Observations for March 31, 2021

Temp ( °F °C ) Dew Point ( °F °C ) Humidity (%) Winds ( mph kmh ) Pressure ( in mb ) Visibility ( mi km ) Precip ( " mm )
12:56 am 00:56 Cloudy with Light Rain 57 13.9 55 12.8 93 93 SW 13 20 29.94 1014 10 16 N/A
1:56 am 01:56 Cloudy 57 13.9 55 12.8 93 93 SSW 9 15 29.93 1014 10 16 N/A
2:30 am 02:30 Cloudy with Light Rain 55 13 55 13 100 100 SSW 8 13 29.93 1014 10 16 N/A
2:56 am 02:56 Cloudy with Light Rain 55 12.8 55 12.8 100 100 SW 8 13 29.92 1013 10 16 N/A
3:32 am 03:32 Cloudy with Rain 55 13 55 13 100 100 SW 7 11 29.92 1013 5 8 N/A
3:39 am 03:39 Cloudy with Light Rain 55 13 55 13 100 100 SSW 8 13 29.91 1013 4 6 N/A
3:56 am 03:56 Cloudy with Light Rain 55 12.8 55 12.8 100 100 SSW 9 15 29.90 1013 5 8 N/A
4:12 am 04:12 Cloudy with Light Rain 55 13 N/A N/A SW 10 17 29.91 1013 6 10 N/A
4:56 am 04:56 Cloudy with Light Rain 55 13 N/A N/A SW 10 17 29.91 1013 4 6 N/A
5:25 am 05:25 Cloudy with Light Rain 48 9 48 9 100 100 WNW 17 28 29.97 1015 9 14 N/A
5:56 am 05:56 Cloudy with Light Rain 47 8.3 47 8.3 100 100 NW 20 31 29.97 1015 4 6 N/A
6:42 am 06:42 Cloudy with Light Rain 43 6 43 6 100 100 NW 20 31 30.04 1017 9 14 N/A
6:47 am 06:47 Cloudy 43 6 43 6 100 100 NNW 18 30 30.04 1017 10 16 N/A
6:56 am 06:56 Cloudy 43 6.1 43 6.1 100 100 NNW 14 22 30.01 1016 10 16 N/A
7:44 am 07:44 Cloudy 43 6 41 5 93 93 NW 13 20 30.07 1018 10 16 N/A
7:56 am 07:56 Cloudy 44 6.7 41 5 89 89 NW 13 20 30.05 1018 10 16 N/A
8:56 am 08:56 Cloudy 44 6.7 42 5.6 93 93 NW 9 15 30.07 1018 10 16 N/A
9:56 am 09:56 Cloudy 44 6.7 35 1.7 71 71 NW 16 26 30.08 1019 10 16 N/A
10:56 am 10:56 Mostly Cloudy 44 6.7 35 1.7 71 71 NW 12 19 30.10 1019 10 16 N/A
11:03 am 11:03 Cloudy 45 7 36 2 71 71 NW 13 20 30.12 1020 10 16 N/A
11:35 am 11:35 Mostly Cloudy 45 7 37 3 76 76 WNW 12 19 30.13 1020 10 16 N/A
11:49 am 11:49 Mostly Cloudy 45 7 37 3 76 76 WNW 13 20 30.13 1020 10 16 N/A
11:56 am 11:56 Mostly Cloudy 46 7.8 39 3.9 77 77 WNW 13 20 30.12 1020 10 16 N/A
12:17 pm 12:17 Partly Cloudy 46 8 37 3 71 71 W 13 20 30.13 1020 10 16 N/A
12:27 pm 12:27 Mostly Cloudy 46 8 37 3 71 71 W 13 20 30.13 1020 10 16 N/A
12:56 pm 12:56 Partly Cloudy 47 8.3 37 2.8 69 69 WSW 13 20 30.12 1020 10 16 N/A
1:56 pm 13:56 Sunny 50 10 31 -0.6 48 48 WNW 15 24 30.09 1019 10 16 N/A
2:56 pm 14:56 Sunny 50 10 29 -1.7 44 44 WNW 18 30 30.09 1019 10 16 N/A
3:56 pm 15:56 Mostly Sunny 48 8.9 26 -3.3 42 42 WNW 18 30 30.09 1019 10 16 N/A
4:56 pm 16:56 Partly Cloudy 46 7.8 24 -4.4 42 42 WNW 20 31 30.10 1019 10 16 N/A
5:56 pm 17:56 Cloudy 45 7.2 25 -3.9 46 46 NW 15 24 30.14 1021 10 16 N/A
6:56 pm 18:56 Sunny 45 7.2 24 -4.4 44 44 WNW 17 28 30.15 1021 10 16 N/A
7:56 pm 19:56 Sunny 42 5.6 23 -5 47 47 WNW 17 28 30.15 1021 10 16 N/A
8:56 pm 20:56 Clear 39 3.9 22 -5.6 50 50 WNW 14 22 30.18 1022 10 16 N/A
9:56 pm 21:56 Clear 38 3.3 20 -6.7 48 48 WNW 15 24 30.21 1023 10 16 N/A
10:56 pm 22:56 Clear 37 2.8 20 -6.7 50 50 WNW 15 24 30.23 1024 10 16 N/A
11:56 pm 23:56 Partly Cloudy 36 2.2 22 -5.6 57 57 NW 10 17 30.24 1024 10 16 N/A

Powered by AerisWeather